{"data":{"norad_id":66615,"intl_designator":"2025-270AD","name":"STARLINK-35988","alt_names":[],"object_type":"PAYLOAD","status":"ACTIVE","operator":null,"country":"US","launch_date":"2025-11-22","launch_site_code":"AFETR","launch_vehicle":null,"mission":null,"orbit_class":"UNKNOWN","rcs_meters":null,"size_class":null,"mass_kg":null,"dimensions":null,"purposes":["comms"],"wikipedia_slug":null,"has_3d_model":false,"image_url":null,"decayed_at":null,"tle_current":{"epoch":"2026-09-20T09:18:00.008640Z","epoch_age_seconds":96261,"freshness":"FRESH","line1":"1 66615U 25270AD  26263.38750010  .00010522  00000+0  39126-3 0  9996","line2":"2 66615  43.0001  36.5172 0001998 271.8911  88.1712 15.27586937 47320","mean_motion":15.27586937,"eccentricity":0.0001998,"inclination_deg":43.0001,"raan_deg":36.5172,"arg_perigee_deg":271.8911,"mean_anomaly_deg":88.1712,"bstar":0.00039126,"rev_number":4732,"period_min":94.266320634293,"perigee_km":481.6574634129,"apogee_km":484.39918507647,"semimajor_km":6861.1653242447,"source":"CELESTRAK","updated_at":"2026-09-21T09:00:35.981495Z"}}}